カタログに戻る

STARLINK-11373

運用中通信VLEO
NORAD 61582·PAYLOAD·🇺🇸 United States

打ち上げ Oct 18, 2024 から Cape Canaveral Space Force Station

Loading…

次のパス (今後24時間)

TLE

最新Source: CelesTrak SupGP

元期: Sep 15, 2026, 02:39 UTC

1 61582C 24187J   26258.11090278 -.00015725  00000+0 -12941-3 0  2584
2 61582  53.1563  82.7791 0001060  84.1784  33.9929 15.69738701    13

AllMySatでSTARLINK-11373をリアルタイム追跡

Download on the App Store